Wind_Speed
31 31 30 26 25 25 43 25 29 37 25 28 16 10 11 22 22 17 9 19 15 12 12 12 12 12 11 12 11 12 10 14 14 16 18 18 20 16 15 13 11 9 9 10 12 13 13 13 14
32 30 32 31 22 30 42 36 23 35 32 22 18 16 10 21 21 21 16 19 17 13 13 13 13 12 13 13 13 13 14 15 15 16 17 16 16 15 13 12 12 13 13 13 13 13 13 14 14
33 30 35 34 29 35 42 44 18 36 37 22 14 15 14 19 21 16 20 22 20 17 14 14 14 14 15 15 15 15 16 16 16 16 17 17 17 16 15 15 16 15 14 14 14 14 14 13 12
31 34 34 33 32 39 39 42 33 27 31 38 15 7 16 18 29 22 24 21 21 19 18 18 18 17 17 17 17 18 18 18 18 18 18 19 19 18 18 17 16 15 15 14 13 12 12 11 11
33 35 32 34 38 45 29 27 33 33 41 47 19 11 11 22 24 28 27 24 22 21 21 20 20 20 20 19 19 19 20 18 18 18 18 18 18 18 18 17 16 15 13 12 11 10 10 10 11
36 37 25 31 51 47 32 27 28 25 27 42 36 24 15 18 25 30 29 27 25 23 23 23 23 23 22 22 22 21 21 20 20 20 20 19 18 18 17 16 15 15 14 13 12 12 11 11 11
41 37 29 34 49 42 44 23 22 23 23 35 31 26 25 19 25 26 27 29 26 25 25 26 26 26 26 26 25 25 24 24 24 23 22 21 20 19 17 16 14 13 11 10 8 8 8 9 9
50 43 33 39 44 35 43 43 28 23 25 20 34 34 28 24 34 25 22 28 28 27 27 28 29 29 29 28 27 26 24 22 22 20 19 18 16 15 14 12 11 9 7 5 4 5 5 6 7
45 36 38 46 44 35 31 34 34 22 32 31 33 42 24 29 26 19 24 27 28 29 30 30 29 29 29 28 27 25 23 20 18 17 15 13 11 10 8 7 5 4 3 4 4 5 6 7 9
49 38 54 46 36 34 31 37 39 21 32 34 36 20 26 29 18 17 28 25 24 27 31 31 30 29 28 27 25 23 21 18 16 14 12 9 7 5 3 2 1 2 3 5 6 7 7 8 9
52 41 47 33 34 35 30 36 44 37 28 33 30 30 30 17 16 11 21 27 27 22 26 29 30 30 28 27 25 22 20 17 15 14 12 9 7 4 3 3 4 4 5 6 7 8 9 10 11
44 35 53 38 28 34 32 34 40 40 28 28 29 33 22 24 20 21 14 20 19 22 24 26 29 30 30 29 27 24 21 17 14 12 10 8 8 7 7 7 7 8 7 7 8 9 10 12 12
39 45 35 35 39 37 31 32 35 38 33 24 26 28 28 28 22 19 18 17 24 17 27 23 26 27 30 30 29 27 25 21 18 15 13 12 11 10 10 9 10 10 9 9 9 10 10 11 12
51 25 37 32 40 32 32 32 39 36 35 34 22 27 26 18 23 19 20 26 29 22 28 25 29 27 28 28 29 28 27 24 21 18 17 15 15 14 13 12 13 12 11 10 10 10 10 12 13
43 32 40 37 36 26 33 33 35 33 33 33 31 22 27 27 27 24 22 27 31 22 10 14 23 28 31 31 28 27 26 25 23 22 20 20 18 17 17 16 15 15 13 12 12 12 12 14 14
31 36 30 36 41 15 33 32 34 31 33 35 34 33 27 28 28 27 23 21 22 20 13 13 11 19 42 30 27 26 26 26 25 26 24 22 22 22 21 20 18 17 15 14 14 14 15 15 15
30 17 25 21 39 12 27 31 33 32 31 35 35 32 28 26 27 26 27 18 21 19 20 22 13 15 23 30 34 33 27 26 23 26 26 24 24 24 24 22 21 20 18 16 15 16 16 17 17
28 29 16 22 30 33 21 30 34 35 31 30 31 30 24 21 21 19 22 25 26 24 24 22 21 18 20 12 32 24 20 25 25 26 27 23 24 26 25 24 23 22 19 17 17 17 18 19 20
16 17 16 17 10 11 18 17 36 33 31 28 28 27 27 25 20 20 21 25 26 28 27 26 23 21 21 20 24 22 26 29 24 25 25 25 25 27 27 26 25 23 20 19 19 19 19 21 23
13 21 6 12 15 6 12 17 28 39 35 27 28 28 26 24 23 20 19 21 24 25 25 26 24 23 21 20 19 21 24 24 25 25 26 26 26 29 28 26 25 23 21 20 21 21 21 22 24
16 24 22 14 11 4 5 8 12 31 24 30 32 28 26 26 27 26 23 19 21 23 23 22 25 24 24 22 27 29 26 25 25 25 25 26 27 28 26 25 25 23 22 21 21 21 23 23 25
22 12 10 13 11 7 13 5 9 19 26 27 29 30 27 26 25 28 31 30 27 20 22 20 23 23 24 27 29 28 28 26 26 27 23 23 23 24 24 25 24 24 23 20 20 22 24 25 25
20 16 11 10 17 15 13 6 1 23 26 30 31 27 25 26 26 23 24 28 34 32 28 22 22 23 21 23 27 26 28 27 27 29 27 25 25 27 23 22 23 28 27 26 25 25 24 26 27
21 16 18 19 15 4 15 12 3 1 16 25 25 23 20 20 22 22 19 17 21 26 33 30 24 22 25 28 31 36 28 28 30 31 26 27 32 34 33 32 28 36 37 27 24 27 27 31 34
21 15 4 4 1 2 12 15 2 4 8 7 12 18 19 20 22 17 17 18 16 15 20 33 28 25 23 26 25 29 35 29 28 32 30 34 39 33 37 33 29 25 19 23 31 35 39 42 45
15 10 5 4 2 2 13 5 2 4 9 6 6 6 10 13 16 16 14 12 10 13 12 21 24 25 25 29 28 28 27 30 32 32 28 32 30 34 28 30 23 21 27 31 34 36 37 36 38
20 7 5 8 6 3 4 3 3 5 5 4 2 2 5 7 12 14 14 15 15 14 14 16 23 26 30 32 29 26 27 26 27 30 31 31 25 24 22 23 24 27 32 39 35 36 35 38 38
12 15 5 2 3 3 0 1 2 8 5 5 7 9 12 13 14 13 13 14 14 14 15 17 19 20 23 25 27 29 29 28 28 29 26 23 23 25 24 27 31 36 34 33 34 38 38 42 43
15 8 4 6 3 3 3 1 7 9 9 9 8 8 6 4 3 1 3 5 9 11 13 17 20 22 24 26 29 29 28 26 25 27 28 29 30 25 25 24 27 29 33 38 36 38 37 40 38
13 8 5 2 4 4 3 1 8 16 14 11 9 4 3 3 4 4 4 4 6 8 10 11 13 14 17 20 23 26 27 26 26 30 33 32 28 27 29 29 29 32 33 37 37 42 40 39 37
Wind_Direction
215 211 207 198 187 208 214 237 224 220 221 223 233 249 232 211 212 195 207 179 181 178 181 177 171 173 167 164 158 154 142 125 124 126 137 143 143 142 139 140 137 131 118 111 103 95 89 82 79
214 210 206 201 209 199 214 216 225 217 215 214 223 233 250 210 216 199 202 183 175 174 179 173 170 168 161 158 152 145 135 127 123 121 127 133 139 138 135 131 126 119 113 108 100 94 89 86 80
212 209 207 209 213 209 214 207 215 226 228 210 200 222 234 217 200 208 196 180 172 170 172 168 166 160 156 154 149 143 135 130 126 124 122 123 124 124 123 121 118 114 110 103 98 95 89 82 74
214 212 210 212 215 215 223 214 208 205 209 209 189 222 228 216 211 210 186 178 167 168 169 167 164 158 155 151 144 139 131 128 126 123 123 122 122 122 119 117 115 112 106 102 96 89 80 71 60
212 214 215 218 215 215 217 215 219 223 223 225 183 213 245 200 196 203 184 174 169 169 168 165 161 157 152 147 142 138 131 129 127 124 122 120 119 117 115 113 110 104 98 92 83 74 67 59 52
215 214 209 215 212 211 202 205 212 219 238 230 232 236 238 206 197 189 178 173 169 171 169 164 159 155 150 144 139 135 130 129 126 122 119 118 116 113 110 106 102 96 88 80 71 62 56 48 37
217 217 215 221 217 225 210 196 212 216 225 234 213 219 248 225 187 192 178 171 171 172 170 163 157 152 145 139 134 130 126 124 120 116 113 110 107 105 102 99 95 90 83 74 59 45 33 23 15
214 224 215 222 215 227 214 210 225 230 233 240 229 227 238 219 174 182 185 175 172 174 171 165 158 153 147 143 138 134 129 125 123 118 114 110 106 101 94 87 82 75 66 55 32 12 360 352 348
208 213 222 221 215 214 211 203 203 207 213 211 233 235 230 232 186 179 181 177 180 178 175 171 164 160 156 151 148 145 140 137 132 127 118 114 109 102 96 88 72 59 26 354 338 333 328 327 328
204 219 213 216 220 208 208 206 199 183 190 213 221 201 221 234 269 239 187 184 185 185 181 179 174 171 166 162 159 155 153 149 147 145 143 136 129 119 105 83 29 332 322 316 312 308 306 305 307
206 226 211 211 213 206 211 205 210 204 195 200 202 213 215 243 246 310 207 179 183 194 195 189 185 183 180 175 172 169 167 166 165 167 170 174 182 200 236 266 278 284 291 299 299 298 297 297 299
204 214 214 214 199 199 211 210 212 215 208 204 202 201 221 216 234 254 268 215 205 197 201 208 198 195 192 189 186 185 185 186 186 188 192 207 221 232 243 256 266 272 279 286 293 293 293 295 298
200 217 210 208 206 201 202 200 216 220 218 211 201 202 208 212 223 222 231 233 222 283 209 203 210 211 205 200 197 196 197 200 206 211 216 227 240 248 255 257 258 259 269 281 288 293 296 300 303
202 196 204 198 197 200 201 193 207 215 219 218 206 201 199 213 220 213 222 215 213 241 228 208 208 214 214 211 209 207 207 210 217 224 231 237 246 253 256 255 255 256 259 271 283 292 296 296 299
206 222 198 195 197 188 197 201 204 213 211 212 209 201 207 203 208 220 221 222 223 237 276 295 293 207 212 211 215 216 222 223 230 236 242 245 248 254 257 253 250 252 258 271 282 289 291 292 297
199 213 185 195 196 183 196 198 203 208 209 210 213 219 211 212 214 216 214 232 248 244 245 245 252 299 215 218 221 218 220 235 241 246 247 250 251 253 253 251 249 249 254 266 280 291 294 295 298
196 214 185 171 197 204 206 194 193 199 202 212 214 217 218 215 216 219 217 234 236 237 246 224 243 291 241 237 223 223 231 243 250 252 248 249 250 251 252 248 244 243 249 263 279 291 296 296 299
201 211 152 170 193 218 210 173 182 187 193 202 209 211 206 210 217 222 222 226 228 226 234 232 232 237 240 268 222 235 215 243 252 251 252 250 250 251 249 245 241 241 247 261 278 288 292 297 303
195 191 206 176 151 218 230 188 180 193 186 188 196 207 209 214 216 219 223 225 223 234 235 237 236 239 236 246 243 240 249 250 253 248 250 252 252 252 251 243 238 240 247 259 274 284 292 300 306
179 206 180 161 173 224 179 214 188 195 197 195 196 199 203 203 209 216 223 228 228 228 231 232 231 236 246 241 247 252 249 250 253 250 248 252 253 252 249 237 236 240 249 261 274 282 291 298 305
198 205 173 132 113 163 336 214 241 210 197 195 203 209 217 223 230 230 228 231 237 234 232 226 235 235 227 247 244 249 249 251 252 259 254 251 248 244 240 235 236 243 252 263 273 284 291 296 303
164 180 175 207 213 239 253 316 263 222 202 209 213 218 226 233 233 237 235 240 236 240 240 222 231 234 232 236 243 248 252 252 261 261 256 252 252 249 239 241 247 250 255 263 276 283 288 294 299
131 141 150 190 178 173 212 261 302 206 214 214 212 218 229 237 235 237 236 238 239 236 233 240 233 236 244 247 249 255 261 259 250 252 248 247 248 243 244 246 247 256 261 262 265 283 287 290 294
143 155 157 167 169 152 200 203 7 170 222 231 225 222 229 228 230 235 241 243 241 246 243 239 242 251 260 262 258 255 266 265 263 264 250 253 264 256 254 246 273 265 262 272 275 277 284 293 295
152 142 73 59 32 104 163 197 292 64 132 170 215 223 224 227 234 237 252 251 256 268 239 225 237 251 260 262 261 260 256 263 266 263 255 263 259 251 265 260 264 271 267 270 275 277 281 285 286
163 169 127 130 165 138 161 204 156 116 134 129 133 168 212 231 243 239 247 247 258 264 246 234 238 242 248 261 262 264 263 264 262 263 263 263 255 263 258 271 259 263 266 274 280 281 279 280 285
171 142 93 103 115 107 193 158 156 144 138 132 170 201 212 224 234 239 244 248 248 254 253 245 241 244 247 251 255 259 262 263 262 257 255 255 262 265 268 262 254 262 270 286 276 278 279 281 283
137 149 136 183 131 104 301 143 116 182 172 200 215 221 229 238 248 250 255 256 251 247 247 250 251 252 255 259 262 262 261 264 259 261 256 246 242 247 250 271 284 280 280 285 276 279 279 284 278
150 146 160 138 87 139 132 173 180 170 189 195 182 170 163 142 113 152 261 251 243 247 255 256 256 258 256 260 257 263 267 259 257 253 241 253 243 258 270 278 287 284 284 286 284 289 288 287 284
176 177 172 151 152 97 102 60 190 171 180 178 181 163 154 186 212 228 228 242 244 242 248 268 285 281 274 267 263 260 264 250 242 247 259 272 274 275 268 272 276 278 280 283 287 291 290 290 290
Height
3114 3116 3119 3121 3127 3122 3122 3125 3128 3125 3130 3136 3139 3140 3143 3144 3145 3148 3146 3147 3150 3152 3154 3155 3157 3158 3159 3161 3162 3163 3165 3165 3166 3167 3167 3170 3172 3173 3175 3176 3178 3179 3180 3180 3181 3181 3181 3182 3181
3108 3112 3115 3117 3116 3114 3113 3121 3123 3119 3128 3135 3137 3139 3140 3142 3143 3144 3145 3147 3149 3152 3154 3155 3157 3158 3160 3162 3163 3165 3166 3167 3168 3169 3170 3172 3174 3175 3177 3178 3179 3180 3181 3182 3182 3183 3183 3183 3183
3105 3107 3111 3111 3109 3106 3108 3114 3120 3119 3127 3131 3135 3137 3138 3139 3142 3144 3145 3145 3147 3151 3153 3156 3157 3159 3161 3163 3165 3166 3167 3168 3169 3171 3172 3174 3175 3177 3178 3180 3180 3181 3182 3183 3184 3185 3185 3185 3185
3102 3102 3104 3100 3101 3104 3107 3113 3117 3118 3117 3129 3132 3135 3139 3138 3140 3143 3144 3145 3147 3150 3153 3155 3157 3160 3162 3164 3166 3167 3168 3170 3171 3172 3174 3175 3177 3179 3180 3181 3182 3183 3184 3184 3185 3186 3186 3186 3186
3094 3094 3093 3095 3097 3100 3107 3111 3112 3114 3114 3126 3131 3132 3134 3138 3138 3142 3143 3145 3147 3150 3152 3155 3158 3160 3162 3165 3167 3168 3169 3171 3173 3175 3176 3178 3179 3180 3181 3183 3184 3185 3186 3186 3187 3187 3187 3187 3186
3088 3086 3084 3087 3091 3096 3104 3109 3108 3110 3110 3117 3127 3132 3133 3136 3137 3140 3141 3143 3146 3150 3152 3155 3158 3161 3163 3165 3167 3169 3171 3173 3175 3177 3178 3180 3180 3181 3183 3184 3185 3186 3187 3188 3188 3189 3188 3188 3188
3080 3081 3081 3083 3089 3092 3098 3105 3107 3108 3108 3112 3129 3130 3130 3134 3135 3139 3140 3142 3147 3150 3154 3156 3158 3161 3164 3166 3168 3170 3172 3174 3177 3178 3180 3182 3182 3183 3184 3185 3186 3187 3187 3188 3189 3189 3189 3189 3189
3075 3079 3077 3079 3082 3088 3096 3102 3107 3104 3104 3115 3124 3122 3126 3129 3128 3136 3140 3142 3145 3150 3154 3157 3159 3162 3164 3167 3169 3171 3174 3176 3178 3179 3181 3182 3184 3184 3186 3187 3187 3188 3189 3189 3189 3189 3189 3188 3188
3068 3070 3072 3075 3081 3087 3095 3099 3102 3103 3104 3109 3113 3122 3126 3127 3127 3125 3138 3140 3143 3147 3153 3157 3160 3163 3165 3167 3169 3171 3174 3176 3178 3180 3181 3183 3184 3185 3186 3187 3188 3188 3189 3189 3189 3189 3189 3188 3188
3060 3061 3065 3073 3080 3085 3093 3096 3100 3102 3104 3107 3111 3117 3123 3128 3127 3125 3134 3139 3143 3147 3151 3155 3160 3163 3165 3167 3169 3171 3173 3175 3178 3180 3181 3183 3184 3185 3186 3186 3187 3188 3188 3189 3189 3188 3187 3187 3186
3054 3056 3062 3072 3079 3083 3088 3093 3096 3100 3103 3106 3107 3114 3121 3128 3126 3128 3127 3132 3141 3147 3150 3154 3158 3162 3165 3167 3169 3171 3173 3175 3177 3179 3181 3182 3183 3185 3186 3186 3186 3187 3187 3187 3187 3187 3186 3185 3184
3051 3054 3060 3069 3074 3080 3085 3090 3091 3095 3103 3106 3108 3113 3116 3124 3128 3127 3132 3133 3139 3142 3148 3152 3156 3160 3163 3165 3168 3170 3172 3174 3176 3179 3181 3182 3183 3183 3184 3184 3185 3186 3185 3185 3185 3184 3184 3183 3183
3047 3052 3058 3065 3070 3075 3080 3085 3088 3092 3099 3103 3108 3111 3116 3121 3124 3127 3130 3133 3136 3139 3146 3149 3152 3157 3161 3164 3165 3167 3170 3173 3175 3177 3179 3181 3182 3182 3183 3183 3183 3183 3183 3183 3183 3183 3182 3182 3181
3044 3047 3056 3058 3066 3071 3076 3081 3086 3089 3096 3102 3107 3108 3113 3117 3122 3124 3128 3131 3136 3140 3141 3142 3144 3152 3157 3160 3163 3165 3168 3170 3172 3175 3177 3178 3179 3180 3180 3180 3181 3181 3181 3181 3181 3180 3180 3179 3179
3043 3047 3052 3055 3062 3065 3071 3078 3082 3088 3093 3099 3106 3109 3111 3117 3122 3125 3128 3135 3139 3139 3136 3142 3143 3145 3150 3153 3157 3161 3165 3167 3170 3172 3174 3175 3176 3177 3177 3177 3178 3178 3179 3179 3179 3179 3178 3177 3176
3041 3044 3041 3047 3057 3063 3071 3075 3080 3085 3091 3095 3102 3107 3110 3115 3121 3125 3128 3131 3134 3135 3134 3138 3141 3144 3146 3147 3151 3155 3160 3164 3167 3168 3170 3171 3173 3173 3173 3174 3174 3175 3176 3176 3176 3176 3176 3174 3173
3039 3040 3040 3048 3055 3060 3071 3073 3077 3082 3088 3092 3098 3103 3107 3112 3116 3120 3122 3124 3130 3134 3134 3133 3136 3140 3145 3144 3148 3151 3152 3156 3161 3163 3166 3166 3167 3168 3168 3169 3170 3171 3171 3173 3173 3172 3172 3171 3170
3034 3041 3039 3046 3054 3064 3056 3067 3073 3077 3084 3090 3094 3100 3104 3108 3112 3113 3117 3119 3125 3129 3132 3135 3137 3139 3141 3141 3145 3146 3148 3151 3155 3158 3160 3161 3162 3163 3163 3164 3165 3166 3167 3168 3168 3168 3168 3167 3166
3038 3042 3047 3049 3054 3062 3059 3060 3070 3074 3079 3087 3091 3095 3101 3106 3109 3112 3117 3119 3122 3126 3126 3130 3135 3136 3137 3138 3140 3143 3144 3147 3150 3153 3154 3155 3157 3158 3159 3160 3160 3162 3163 3163 3163 3163 3163 3162 3160
3038 3042 3048 3051 3055 3062 3062 3062 3067 3072 3077 3085 3090 3093 3097 3102 3106 3110 3114 3116 3119 3121 3124 3126 3129 3131 3135 3136 3138 3139 3141 3143 3145 3146 3147 3148 3150 3152 3153 3155 3156 3156 3157 3157 3157 3157 3157 3158 3156
3041 3043 3048 3052 3055 3059 3064 3066 3068 3070 3072 3080 3084 3089 3094 3098 3103 3107 3111 3114 3116 3117 3119 3121 3127 3129 3132 3131 3133 3134 3133 3137 3139 3141 3142 3142 3143 3146 3147 3149 3151 3151 3151 3152 3152 3152 3152 3152 3151
3041 3046 3048 3052 3057 3064 3067 3066 3064 3069 3071 3078 3083 3086 3090 3095 3098 3102 3105 3107 3112 3116 3117 3118 3121 3123 3123 3125 3128 3129 3130 3132 3135 3137 3137 3137 3139 3141 3143 3145 3145 3146 3146 3146 3147 3147 3147 3146 3146
3041 3045 3048 3054 3059 3062 3065 3072 3067 3068 3069 3074 3081 3085 3089 3091 3094 3097 3099 3102 3105 3109 3113 3115 3117 3120 3120 3122 3125 3126 3126 3126 3125 3130 3131 3133 3136 3137 3137 3138 3137 3140 3141 3141 3141 3142 3141 3140 3139
3043 3046 3049 3055 3057 3060 3064 3071 3067 3068 3071 3075 3079 3082 3085 3088 3091 3093 3095 3097 3100 3102 3105 3110 3113 3115 3118 3120 3121 3123 3122 3124 3122 3124 3122 3125 3129 3130 3131 3129 3131 3133 3133 3133 3136 3136 3135 3133 3131
3045 3051 3053 3060 3062 3064 3067 3072 3069 3067 3070 3073 3076 3077 3080 3084 3087 3090 3092 3094 3096 3096 3097 3103 3108 3111 3112 3113 3114 3115 3117 3118 3119 3119 3116 3119 3120 3118 3121 3122 3123 3125 3128 3129 3129 3128 3127 3126 3124
3049 3052 3053 3060 3063 3065 3069 3070 3071 3072 3074 3075 3076 3077 3080 3082 3085 3089 3091 3092 3093 3094 3094 3098 3101 3104 3105 3107 3108 3108 3109 3109 3110 3112 3111 3112 3111 3112 3112 3116 3116 3120 3122 3122 3121 3120 3118 3116 3116
3050 3054 3057 3060 3065 3066 3068 3067 3069 3071 3072 3073 3076 3077 3079 3081 3083 3085 3087 3090 3091 3092 3093 3094 3096 3098 3099 3099 3099 3100 3101 3102 3103 3104 3104 3105 3106 3107 3110 3112 3113 3113 3114 3113 3112 3112 3110 3109 3107
3052 3056 3060 3060 3066 3066 3067 3066 3069 3071 3073 3075 3075 3076 3078 3080 3082 3084 3084 3086 3087 3088 3089 3090 3092 3092 3093 3093 3093 3094 3095 3096 3096 3098 3099 3099 3101 3103 3104 3105 3107 3106 3105 3104 3104 3104 3101 3100 3098
3054 3056 3059 3060 3061 3064 3069 3071 3070 3073 3073 3073 3074 3075 3077 3080 3082 3083 3082 3083 3084 3084 3085 3085 3085 3085 3085 3085 3086 3087 3087 3088 3090 3092 3092 3095 3095 3096 3098 3099 3099 3098 3098 3097 3096 3094 3092 3090 3088
3055 3058 3059 3059 3064 3064 3064 3069 3066 3070 3073 3074 3075 3077 3079 3080 3081 3081 3081 3081 3082 3082 3081 3081 3081 3080 3079 3078 3078 3079 3081 3082 3084 3087 3088 3088 3088 3090 3091 3091 3091 3091 3090 3089 3087 3085 3082 3079 3077